COSMOS 1980

Satellite information

Favourite Embed

Satellite Type and Status

PAYLOADIN ORBIT

Key statistics

Satellite COSMOS 1980 at a glance.

Uptime

13482

Days in orbit

Revolutions

≈ 14.2

Per day

Orbit

LEO

Low Earth Orbit

Inclination

71.0

Latest

Satellite identification and parameters

Extended collection of information and parameters for COSMOS 1980.

Object identification

Identified? True

Debris? False

Object name: COSMOS 1980

International designator: 1988-102A

Object number (NORAD): 19649

Object ID (CCSDS): 19649

Country: COMMONWEALTH OF INDEPENDENT STATES (CIS)

Current information (Y/N): Y

RCS size: LARGE

Orbital parameters

Period: 101.755 minutes

Inclination: 70.9989 deg

SMA: 7219.881 km

Apoapsis: 846.179 km

Periapsis: 837.313 km

RAAN: 145.8249 deg

Eccentricy: 0.000614

Argument of periapsis: 336.8914 deg

Mean anomaly: 23.1931 deg

Mean motion: 14.15167005 rev/day

Mean motion (dot): -0.00000049 rev/day2

B* drag term: -0.00000050723 1/REarth

Two-line elements (TLE)

Creation date: Oct. 22, 2025, 12:06 a.m.

Reference frame: TEME

Reference center: EARTH

Epoch: Oct. 21, 2025, 7:33 p.m. UTC

TLE line 0: 0 COSMOS 1980

TLE line 1: 1 19649U 88102A 25294.81475416 -.00000049 00000-0 -50723-6 0 9994

TLE line 2: 2 19649 70.9989 145.8249 0006140 336.8914 23.1931 14.15167005905497

Live tracking on map

Real-time ground track for satellite COSMOS 1980.

In-orbit conjunctions

A list of the most updated potential collisions computed for object COSMOS 1980.

Target Orbit TCA Probability of collision Miss distance Type
FENGYUN 1C DEB SSO 2025-05-15 14:42:47 0.0001165147 676.0 (m) DEBRIS
CZ-6A DEB SSO 2025-04-24 22:41:58 0.0002840487 130.0 (m) DEBRIS
FENGYUN 1C DEB SSO 2024-11-08 07:30:54 0.0006598079 351.0 (m) DEBRIS
FENGYUN 1C DEB SSO 2024-07-04 06:25:03 0.0002888205 239.0 (m) DEBRIS
FENGYUN 1C DEB SSO 2024-06-09 20:57:51 0.0004467831 88.0 (m) DEBRIS

Associated space launch

Second generation ELING satellite

COSMOS 1980 was lifted into orbit during the mission ‘Zenit-2 | Tselina-2 6’, on board a Zenit-2 space rocket.

The launch took place on Nov. 23, 1988, 2:50 p.m. from 45/1.

For more information about the launch, click the button.

Launch to space Zenit-2 | Tselina-2 6
Zenit-2 | Tselina-2 6

Agency: N/A

Status: Launch Successful

Launch date: Nov. 23, 1988, 2:50 p.m. UTC

Rocket: Zenit-2

Launch pad: 45/1

Location: Baikonur Cosmodrome, Republic of Kazakhstan

...

Latest news about this satellite

There are no fresh news available about this satellite. Check back as we update our databases every day.


Newsletter sign-up

Weekly statistics, charts and insights to help you stay on top of the space industry.